EST,Max TemperatureF,Mean TemperatureF,Min TemperatureF,Max Dew PointF,MeanDew PointF,Min DewpointF,Max Humidity, Mean Humidity, Min Humidity, Max Sea Level PressureIn, Mean Sea Level PressureIn, Min Sea Level PressureIn, Max VisibilityMiles, Mean VisibilityMiles, Min VisibilityMiles, Max Wind SpeedMPH, Mean Wind SpeedMPH, Max Gust SpeedMPH,PrecipitationIn, CloudCover, Events, WindDirDegrees
2013-2-1,75,64,53,53,47,37,81,54,40,30.27,30.22,30.17,10,10,10,18,12,24,0.00,1,,16
2013-2-2,75,64,54,55,51,41,90,66,39,30.26,30.19,30.13,10,10,10,13,6,22,0.00,1,,51
2013-2-3,75,64,54,56,48,36,97,62,34,30.18,30.12,30.08,10,10,10,13,5,21,0.00,1,,355
2013-2-4,75,62,50,53,48,36,90,62,33,30.16,30.09,30.04,10,10,10,10,4,16,0.00,1,,89
2013-2-5,78,66,54,64,58,51,93,75,52,30.09,30.05,30.02,10,10,10,9,2,,0.00,2,,122
2013-2-6,81,70,60,65,62,60,100,85,50,30.11,30.07,30.03,10,7,0,13,2,20,0.00,1,Fog,111
2013-2-7,81,72,63,65,63,61,93,76,56,30.08,30.03,29.96,10,10,10,13,5,17,0.00,0,,134
2013-2-8,84,72,60,70,65,61,100,87,55,30.05,29.99,29.94,10,7,0,15,5,,0.01,2,Fog,249
2013-2-9,82,71,60,67,63,58,100,83,54,30.17,30.10,30.04,10,6,0,16,7,22,0.00,3,Fog,47
2013-2-10,80,72,64,64,61,58,83,69,48,30.25,30.19,30.15,10,10,10,20,12,26,0.00,4,Rain,103
2013-2-11,80,74,69,65,64,62,84,70,58,30.22,30.17,30.13,10,10,10,16,10,22,0.00,3,,127
2013-2-12,82,73,64,68,66,64,100,78,56,30.12,30.07,29.99,10,10,10,12,5,,0.00,2,,164
2013-2-13,84,75,66,72,69,66,100,85,57,30.03,29.99,29.94,10,8,0,14,4,20,0.01,3,Fog,178
2013-2-14,87,74,62,74,67,60,100,90,53,30.04,29.97,29.90,10,7,1,21,5,30,0.39,5,Rain,332
2013-2-15,73,68,62,68,65,62,100,95,78,30.02,29.99,29.96,10,9,1,14,7,,0.82,8,Rain,25
2013-2-16,75,66,55,65,58,45,97,79,38,30.11,29.95,29.90,10,9,5,22,7,28,0.10,5,Rain,328
2013-2-17,59,52,46,45,32,25,69,48,28,30.32,30.24,30.10,10,10,10,21,14,29,0.00,0,,352
2013-2-18,72,59,46,57,45,36,75,59,40,30.32,30.27,30.21,10,10,10,20,11,28,0.00,3,,62
2013-2-19,78,68,57,66,61,54,93,72,57,30.20,30.16,30.11,10,10,10,15,8,25,0.00,4,Rain,134
2013-2-20,81,72,64,68,65,61,100,81,54,30.12,30.07,30.02,10,10,9,14,4,,0.00,6,,79
2013-2-21,82,74,66,67,65,64,93,76,56,30.10,30.06,30.02,10,10,10,15,8,21,0.00,2,,102
2013-2-22,82,76,69,71,69,66,93,77,58,30.11,30.07,30.02,10,10,10,16,10,24,0.00,3,,124
2013-2-23,84,78,72,72,70,68,97,80,60,30.05,30.00,29.94,10,10,10,13,8,20,0.00,2,,163
2013-2-24,86,76,66,74,69,64,100,89,48,30.01,29.96,29.91,10,5,0,9,1,,0.00,5,Fog,184
2013-2-25,86,77,68,74,69,63,100,81,46,29.93,29.88,29.83,10,10,8,16,4,23,0.01,4,,149
2013-2-26,84,78,73,73,71,69,91,78,61,29.92,29.87,29.81,10,10,10,16,9,23,0.00,4,,188
2013-2-27,77,72,66,73,67,63,100,86,64,29.98,29.94,29.88,10,9,2,10,4,28,0.05,7,Rain,333
2013-2-28,73,68,62,65,55,48,94,69,40,30.02,29.97,29.92,10,10,10,14,8,,0.01,6,Rain,319